Hourly Data Report for October 06, 2016

All times are specified in Local Standard Time (LST). Add 1 hour to adjust for Daylight Saving Time where and when it is observed.

KUGAARUK CLIMATE
NUNAVUT

68°32'15.060" N
89°47'47.020" W
15.80 m
2303094
71407
NBB

Download Data

Hourly Data (October 2016)
Hourly Data Report for October 6, 2016
Temp Definition
°C
Dew Point Temp Definition
°C
Rel Hum Definition
%
Wind Dir Definition
10's deg

Wind Spd Definition
km/h
Visibility Definition
km
Stn Press Definition
kPa
Hmdx Definition


Wind Chill Definition


Weather Definition


TIME
00:00 -1.3 -3.8 83 29 24   101.95   -7 LegendNANA
01:00 -1.8 -3.1 91 29 21   101.95   -8 LegendNANA
02:00 -1.2 -3.3 86 27 19   101.91   -7 LegendNANA
03:00 -1.3 -3.2 87 26 21   101.87   -7 LegendNANA
04:00 -1.0 -2.8 88 26 17   101.87   -6 LegendNANA
05:00 -1.2 -2.4 92 26 21   101.83   -7 LegendNANA
06:00 -1.3 -2.0 95 23 22   101.78   -7 LegendNANA
07:00 -1.0 -2.2 91 22 22   101.76   -7 LegendNANA
08:00 -0.7 -1.6 94 25 14   101.76   -5 LegendNANA
09:00 -0.6 -2.2 89 26 14   101.73   -5 LegendNANA
10:00 -0.6 -2.1 90 27 17   101.72   -6 LegendNANA
11:00 -0.9 -2.3 90 26 13   101.71   -5 LegendNANA
12:00 -0.8 -2.7 87 25 24   101.68   -7 LegendNANA
13:00 -0.7 -3.9 79 26 33   101.65   -8 LegendNANA
14:00 -1.1 -3.9 81 27 23   101.64   -7 LegendNANA
15:00 -1.3 -4.3 80 29 27   101.64   -8 LegendNANA
16:00 -1.4 -4.2 81 28 24   101.63   -8 LegendNANA
17:00 -1.6 -3.8 85 29 20   101.67   -7 LegendNANA
18:00 -1.4 -3.7 84 29 21   101.69   -7 LegendNANA
19:00 -1.3 -3.4 86 27 20   101.71   -7 LegendNANA
20:00 -1.1 -2.7 89 28 21   101.69   -7 LegendNANA
21:00 -0.9 -3.2 84 30 24   101.67   -7 LegendNANA
22:00 -0.9 -3.0 86 28 26   101.68   -7 LegendNANA
23:00 -0.8 -3.2 84 30 25   101.70   -7 LegendNANA

Notes on Data Quality.

Legend

  • E = Estimated
  • M = Missing
  • NA = Not Available
  • ‡ = Partner data that is not subject to review by the National Climate Archives
Date modified: